Weather History for Billings, MT

Change the Weather History Date:

Monday, March 26, 2012

  Actual Average Record
Temperature  
Mean Temperature 52 °F 40 °F  
Max Temperature 65 °F 51 °F 77 °F (1960)
Min Temperature 39 °F 30 °F 0 °F (1965)
Degree Days  
Heating Degree Days 13 25  
Month to date heating degree days 499 726  
Since 1 July heating degree days 5007 5691  
Cooling Degree Days 0 0  
Month to date cooling degree days 0 0  
Year to date cooling degree days 0 0  
Growing Degree Days 2 (Base 50)    
Moisture  
Dew Point 37 °F    
Average Humidity 61    
Maximum Humidity 82    
Minimum Humidity 39    
Precipitation  
Precipitation T in 0.04 in 0.34 in (1987)
Month to date precipitation 0.70 0.83  
Year to date precipitation 1.55 1.79  
Snow  
Snow 0.00 in 0.30 in 2.70 in (1987)
Month to date snowfall 5.9 8.4  
Since 1 July snowfall 34.7 42.9  
Snow Depth 0.00 in    
Sea Level Pressure  
Sea Level Pressure 29.55 in    
Wind  
Wind Speed 12 mph (West)    
Max Wind Speed 46 mph    
Max Gust Speed 54 mph    
Visibility 10 miles    
Events Rain    
T = Trace of Precipitation, MM = Missing Value Source: NWS Daily Summary

Daily Weather History Graph

Daily Weather History Graph

Search for Another Location

Airport:

Trip Planner

Search our weather history database for the weather conditions in past years. The results will help you decide how hot, cold, wet, or windy it might be!

Date:

Astronomy

Mar. 26, 2012 Rise Set
Actual Time 7:04 AM MDT 7:35 PM MDT
Civil Twilight 6:34 AM MDT 8:05 PM MDT
Nautical Twilight 5:59 AM MDT 8:40 PM MDT
Astronomical Twilight 5:22 AM MDT 9:17 PM MDT
Moon 8:42 AM MDT (3/26) No Moon Set
Length of Visible Light 13h 30m
Length of Day
12h 30m
Waxing Crescent, 15% of the Moon is Illuminated
Mar 26
Waxing Crescent
Mar 30
First Quarter
Apr 6
Full
Apr 13
Last Quarter
Apr 21
New

Hourly Weather History & Observations

Time (MDT) Temp. Windchill Dew Point Humidity Pressure Visibility Wind Dir Wind Speed Gust Speed Precip Events Conditions
12:53 AM 42.1 °F 37.1 °F 35.1 °F 76% 29.71 in 10.0 mi WNW 8.1 mph - N/A   Clear
1:53 AM 41.0 °F 35.2 °F 35.1 °F 79% 29.68 in 10.0 mi NW 9.2 mph - N/A   Clear
2:53 AM 41.0 °F 36.4 °F 34.0 °F 76% 29.66 in 10.0 mi WSW 6.9 mph - N/A   Clear
3:53 AM 39.9 °F 35.1 °F 34.0 °F 79% 29.64 in 10.0 mi SW 6.9 mph - N/A   Clear
4:53 AM 39.9 °F 34.5 °F 33.1 °F 77% 29.62 in 10.0 mi SW 8.1 mph - N/A   Clear
5:53 AM 39.9 °F 35.1 °F 34.0 °F 79% 29.61 in 10.0 mi SW 6.9 mph - N/A   Clear
6:53 AM 39.9 °F 33.9 °F 34.0 °F 79% 29.60 in 10.0 mi SW 9.2 mph - N/A   Scattered Clouds
7:53 AM 39.0 °F 32.8 °F 34.0 °F 82% 29.60 in 10.0 mi SW 9.2 mph - N/A   Scattered Clouds
8:53 AM 39.9 °F 34.5 °F 34.0 °F 79% 29.58 in 10.0 mi SSW 8.1 mph - N/A   Scattered Clouds
9:53 AM 45.0 °F 40.6 °F 35.1 °F 68% 29.55 in 10.0 mi SSW 8.1 mph - N/A   Scattered Clouds
10:53 AM 46.9 °F - 36.0 °F 66% 29.52 in 10.0 mi SW 4.6 mph - N/A   Scattered Clouds
11:53 AM 51.1 °F - 37.0 °F 59% 29.48 in 10.0 mi SSW 3.5 mph - N/A   Partly Cloudy
12:53 PM 57.0 °F - 37.9 °F 49% 29.42 in 10.0 mi Calm Calm - N/A   Partly Cloudy
1:53 PM 60.1 °F - 37.9 °F 44% 29.38 in 10.0 mi ENE 9.2 mph - N/A   Partly Cloudy
2:53 PM 62.1 °F - 39.9 °F 44% 29.34 in 10.0 mi East 9.2 mph - N/A   Partly Cloudy
3:53 PM 64.0 °F - 39.0 °F 40% 29.33 in 10.0 mi NE 12.7 mph - N/A   Scattered Clouds
4:53 PM 62.1 °F - 37.9 °F 41% 29.36 in 10.0 mi ENE 13.8 mph - N/A   Mostly Cloudy
5:53 PM 59.0 °F - 39.0 °F 48% 29.46 in 10.0 mi NW 21.9 mph 34.5 mph 0.00 in Rain Light Rain
6:10 PM 55.4 °F - 37.4 °F 51% 29.46 in 10.0 mi NW 29.9 mph 52.9 mph 0.00 in   Squalls
6:53 PM 48.0 °F - 39.0 °F 71% 29.55 in 10.0 mi NNW 24.2 mph 40.3 mph 0.00 in   Mostly Cloudy
7:53 PM 46.9 °F - 41.0 °F 80% 29.62 in 10.0 mi NW 11.5 mph 20.7 mph N/A   Overcast
8:53 PM 46.9 °F - 39.0 °F 74% 29.61 in 10.0 mi WNW 13.8 mph - N/A   Mostly Cloudy
9:53 PM 51.1 °F - 37.0 °F 59% 29.60 in 10.0 mi WNW 13.8 mph - N/A   Mostly Cloudy
10:53 PM 51.1 °F - 37.0 °F 59% 29.62 in 10.0 mi WNW 19.6 mph 26.5 mph N/A   Overcast
11:53 PM 48.0 °F - 36.0 °F 63% 29.65 in 10.0 mi WNW 26.5 mph 38.0 mph N/A   Mostly Cloudy